This is the latest recevied weather packets stored in our database for station/object KG4ZVW. If no packets are shown the sender has not sent any weather packets the latest 10 day(s).
| Time | Temp. | Humidity | Pressure | Rain* | Wind** | Luminosity | Snow |
|---|---|---|---|---|---|---|---|
| 1777809806 | 20° C | 86% | 1015.1 hPa | 0 mm | - | 40 W/m² | - |
| 1777809517 | 20° C | 86% | 1015.1 hPa | 0 mm | - | 44 W/m² | - |
| 1777809213 | 20° C | 86% | 1015 hPa | 0 mm | - | 53 W/m² | - |
| 1777808908 | 20° C | 86% | 1015 hPa | 0 mm | - | 60 W/m² | - |
| 1777808607 | 20° C | 87% | 1015 hPa | 0 mm | - | 51 W/m² | - |
| 1777808322 | 20° C | 88% | 1014.9 hPa | 0 mm | - | 46 W/m² | - |
| 1777808017 | 20° C | 88% | 1014.9 hPa | 0 mm | - | 37 W/m² | - |
| 1777807713 | 20° C | 88% | 1014.9 hPa | 0 mm | - | 37 W/m² | - |
| 1777807408 | 20° C | 88% | 1015 hPa | 0 mm | - | 25 W/m² | - |
| 1777807123 | 20° C | 89% | 1015 hPa | 0 mm | - | 18 W/m² | - |
| 1777806819 | 20° C | 88% | 1015 hPa | 0 mm | - | 14 W/m² | - |
| 1777806513 | 20° C | 88% | 1014.8 hPa | 0 mm | - | 11 W/m² | - |
| 1777806209 | 20° C | 88% | 1014.8 hPa | 0 mm | - | 5 W/m² | - |
| 1777805925 | 20° C | 88% | 1014.8 hPa | 0 mm | - | 5 W/m² | - |
| 1777805620 | 20° C | 88% | 1014.5 hPa | 0 mm | - | 0 W/m² | - |
| 1777805315 | 20° C | 89% | 1014.5 hPa | 0 mm | - | 0 W/m² | - |
| 1777805010 | 20° C | 89% | 1014.5 hPa | 0 mm | - | 0 W/m² | - |
| 1777804707 | 20° C | 89% | 1014.4 hPa | 0 mm | - | 0 W/m² | - |
| 1777804420 | 20° C | 89% | 1014.4 hPa | 0 mm | - | 0 W/m² | - |
| 1777804115 | 20° C | 89% | 1014.4 hPa | 0 mm | - | 0 W/m² | - |
| 1777803810 | 20° C | 89% | 1014.2 hPa | 0 mm | - | 0 W/m² | - |
| 1777803506 | 20° C | 89% | 1014.2 hPa | 0 mm | - | 0 W/m² | - |
| 1777803223 | 19.44° C | 89% | 1014.2 hPa | 0 mm | - | 0 W/m² | - |
| 1777802917 | 19.44° C | 89% | 1014.1 hPa | 0 mm | - | 0 W/m² | - |
| 1777802610 | 19.44° C | 89% | 1014.1 hPa | 0 mm | - | 0 W/m² | - |
* Rain latest hour (hover to see other rain measurements)
** Current wind speed in m/s (hover to see current wind gust speed)